| time (UTC) | temp C | wind direction | speed KPH | gust KPH | rain 1hr cm | rain 24hr cm | rain mn cm | humidity % | barometer mb |
| 20260510073007 | 6 | 282 | 0.0 | 0.0 | 0.00 | 0.00 | 0.00 | 97 | 1010.7 |
| 20260510071506 | 6 | 282 | 0.0 | 0.0 | 0.00 | 0.00 | 0.00 | 97 | 1010.5 |
| 20260510070004 | 6 | 282 | 0.0 | 0.0 | 0.00 | 0.00 | 0.00 | 96 | 1010.4 |
| 20260510064502 | 6 | 282 | 0.0 | 0.0 | 0.00 | 0.00 | 0.00 | 96 | 1010.3 |
| 20260510063001 | 7 | 282 | 0.0 | 0.0 | 0.00 | 0.00 | 0.00 | 96 | 1010.3 |
| 20260510061559 | 7 | 282 | 0.0 | 0.0 | 0.00 | 0.00 | 0.00 | 96 | 1010.3 |
| 20260510060057 | 7 | 282 | 0.0 | 0.0 | 0.00 | 0.00 | 0.00 | 97 | 1010.4 |
| 20260510054555 | 7 | 282 | 0.0 | 0.0 | 0.00 | 0.00 | 0.00 | 96 | 1010.5 |
| 20260510053056 | 7 | 282 | 0.0 | 3.2 | 0.00 | 0.00 | 0.00 | 96 | 1010.5 |
| 20260510051556 | 7 | 282 | 0.0 | 0.0 | 0.00 | 0.00 | 0.00 | 96 | 1010.5 |
| 20260510050050 | 8 | 282 | 0.0 | 0.0 | 0.00 | 0.00 | 0.00 | 96 | 1010.5 |
| 20260510044605 | 8 | 282 | 0.0 | 0.0 | 0.00 | 0.00 | 0.00 | 95 | 1010.3 |
| 20260510043045 | 8 | 282 | 0.0 | 0.0 | 0.00 | 0.00 | 0.00 | 95 | 1010.2 |
| 20260510041847 | 8 | 282 | 0.0 | 0.0 | 0.00 | 0.00 | 0.00 | 95 | 1010.3 |
| 20260510041541 | 8 | 282 | 0.0 | 0.0 | 0.00 | 0.00 | 0.00 | 94 | 1010.1 |
| 20260510041341 | 9 | 282 | 0.0 | 0.0 | 0.00 | 0.00 | 0.00 | 94 | 1010.3 |
| 20260510040853 | 9 | 282 | 0.0 | 0.0 | 0.00 | 0.00 | 0.00 | 95 | 1010.3 |
| 20260510040406 | 9 | 282 | 0.0 | 1.6 | 0.00 | 0.00 | 0.00 | 95 | 1010.3 |
| 20260510040055 | 9 | 282 | 0.0 | 1.6 | 0.00 | 0.00 | 0.00 | 95 | 1010.2 |
| 20260510035854 | 9 | 282 | 0.0 | 1.6 | 0.00 | 0.00 | 0.00 | 95 | 1010.3 |
| 20260510035346 | 9 | 282 | 0.0 | 0.0 | 0.00 | 0.00 | 0.00 | 95 | 1010.3 |
| 20260510034838 | 10 | 282 | 0.0 | 0.0 | 0.00 | 0.00 | 0.00 | 95 | 1010.0 |
| 20260510034550 | 9 | 282 | 0.0 | 3.2 | 0.00 | 0.00 | 0.00 | 95 | 1010.0 |
| 20260510034350 | 10 | 282 | 0.0 | 3.2 | 0.00 | 0.00 | 0.00 | 94 | 1010.3 |
| 20260510033843 | 10 | 282 | 0.0 | 0.0 | 0.00 | 0.00 | 0.00 | 94 | 1010.3 |
| 20260510033355 | 10 | 282 | 0.0 | 0.0 | 0.00 | 0.00 | 0.00 | 94 | 1010.3 |
| 20260510033048 | 9 | 282 | 0.0 | 0.0 | 0.00 | 0.00 | 0.00 | 94 | 1010.1 |
| 20260510032848 | 10 | 282 | 0.0 | 0.0 | 0.00 | 0.00 | 0.00 | 94 | 1010.3 |
| 20260510032344 | 10 | 282 | 0.0 | 0.0 | 0.00 | 0.00 | 0.00 | 94 | 1010.2 |
| 20260510031912 | 10 | 282 | 0.0 | 0.0 | 0.00 | 0.00 | 0.00 | 94 | 1010.2 |
| 20260510031547 | 10 | 282 | 0.0 | 0.0 | 0.00 | 0.00 | 0.00 | 93 | 1010.0 |
| 20260510031346 | 10 | 282 | 0.0 | 0.0 | 0.00 | 0.00 | 0.00 | 93 | 1010.2 |
| 20260510030839 | 10 | 282 | 0.0 | 0.0 | 0.00 | 0.00 | 0.00 | 93 | 1010.2 |
| 20260510030354 | 10 | 282 | 0.0 | 1.6 | 0.00 | 0.00 | 0.00 | 92 | 1010.2 |
| 20260510030007 | 10 | 282 | 0.0 | 1.6 | 0.00 | 0.00 | 0.00 | 92 | 1010.0 |
| 20260510025902 | 10 | 282 | 0.0 | 1.6 | 0.00 | 0.00 | 0.00 | 92 | 1010.1 |
| 20260510025355 | 10 | 282 | 0.0 | 1.6 | 0.00 | 0.00 | 0.00 | 92 | 1010.2 |
| 20260510024847 | 10 | 282 | 0.0 | 3.2 | 0.00 | 0.00 | 0.00 | 92 | 1010.2 |
| 20260510024542 | 10 | 282 | 0.0 | 3.2 | 0.00 | 0.00 | 0.00 | 92 | 1010.1 |
| 20260510024340 | 11 | 282 | 0.0 | 0.0 | 0.00 | 0.00 | 0.00 | 92 | 1010.2 |
| 20260510023852 | 11 | 282 | 0.0 | 0.0 | 0.00 | 0.00 | 0.00 | 92 | 1010.1 |
| 20260510023345 | 11 | 282 | 0.0 | 0.0 | 0.00 | 0.00 | 0.00 | 91 | 1010.2 |
| 20260510023059 | 10 | 282 | 0.0 | 0.0 | 0.00 | 0.00 | 0.00 | 91 | 1009.9 |
| 20260510022856 | 11 | 282 | 0.0 | 0.0 | 0.00 | 0.00 | 0.00 | 91 | 1010.1 |
| 20260510022349 | 11 | 282 | 0.0 | 0.0 | 0.00 | 0.00 | 0.00 | 91 | 1010.0 |
| 20260510021842 | 11 | 282 | 0.0 | 0.0 | 0.00 | 0.00 | 0.00 | 90 | 1009.9 |
| 20260510021556 | 11 | 282 | 0.0 | 0.0 | 0.00 | 0.00 | 0.00 | 90 | 1009.8 |
| 20260510021356 | 11 | 282 | 0.0 | 0.0 | 0.00 | 0.00 | 0.00 | 90 | 1009.9 |
| 20260510020847 | 11 | 282 | 0.0 | 0.0 | 0.00 | 0.00 | 0.00 | 89 | 1009.8 |
| 20260510020401 | 11 | 282 | 0.0 | 0.0 | 0.00 | 0.00 | 0.00 | 88 | 1009.8 |
| 20260510020051 | 11 | 282 | 0.0 | 0.0 | 0.00 | 0.00 | 0.00 | 88 | 1009.4 |
| 20260510015850 | 11 | 282 | 0.0 | 0.0 | 0.00 | 0.00 | 0.00 | 88 | 1009.6 |
| 20260510015341 | 12 | 282 | 0.0 | 0.0 | 0.00 | 0.00 | 0.00 | 88 | 1009.6 |
| 20260510014834 | 12 | 282 | 0.0 | 0.0 | 0.00 | 0.00 | 0.00 | 88 | 1009.6 |
| 20260510014509 | 12 | 282 | 0.0 | 0.0 | 0.00 | 0.00 | 0.00 | 87 | 1009.2 |
| 20260510014409 | 12 | 282 | 0.0 | 0.0 | 0.00 | 0.00 | 0.00 | 87 | 1009.4 |
| 20260510013840 | 12 | 282 | 0.0 | 0.0 | 0.00 | 0.00 | 0.00 | 86 | 1009.3 |
| 20260510013354 | 12 | 282 | 0.0 | 0.0 | 0.00 | 0.00 | 0.00 | 86 | 1009.1 |
| 20260510013007 | 12 | 282 | 0.0 | 0.0 | 0.00 | 0.00 | 0.00 | 85 | 1008.9 |
| 20260510012846 | 12 | 282 | 0.0 | 0.0 | 0.00 | 0.00 | 0.00 | 85 | 1009.1 |
| 20260510012338 | 12 | 282 | 0.0 | 0.0 | 0.00 | 0.00 | 0.00 | 85 | 1009.0 |
| 20260510011851 | 12 | 282 | 0.0 | 0.0 | 0.00 | 0.00 | 0.00 | 84 | 1008.9 |
| 20260510011552 | 12 | 282 | 0.0 | 0.0 | 0.00 | 0.00 | 0.00 | 84 | 1008.6 |
| 20260510011344 | 13 | 282 | 0.0 | 0.0 | 0.00 | 0.00 | 0.00 | 83 | 1008.8 |
| 20260510010856 | 13 | 282 | 0.0 | 0.0 | 0.00 | 0.00 | 0.00 | 83 | 1008.7 |
| 20260510010350 | 13 | 282 | 0.0 | 3.2 | 0.00 | 0.00 | 0.00 | 82 | 1008.6 |
| 20260510010050 | 13 | 282 | 0.0 | 3.2 | 0.00 | 0.00 | 0.00 | 81 | 1008.3 |
| 20260510005843 | 13 | 282 | 1.6 | 3.2 | 0.00 | 0.00 | 0.00 | 81 | 1008.5 |
| 20260510005354 | 13 | 282 | 526.3 | 526.3 | 0.00 | 0.00 | 0.00 | 81 | 1008.2 |
| 20260510004908 | 13 | 282 | 0.0 | 3.2 | 0.00 | 0.00 | 0.00 | 80 | 1008.3 |
| 20260510004539 | 13 | 282 | 0.0 | 3.2 | 0.00 | 0.00 | 0.00 | 79 | 1008.0 |
| 20260510004339 | 14 | 282 | 1.6 | 3.2 | 0.00 | 0.00 | 0.00 | 79 | 1008.2 |
| 20260510003851 | 14 | 282 | 0.0 | 0.0 | 0.00 | 0.00 | 0.00 | 78 | 1008.2 |
| 20260510003344 | 14 | 282 | 0.0 | 0.0 | 0.00 | 0.00 | 0.00 | 78 | 1008.1 |
| 20260510003037 | 14 | 282 | 0.0 | 0.0 | 0.00 | 0.00 | 0.00 | 77 | 1007.8 |
| 20260510002837 | 14 | 282 | 0.0 | 0.0 | 0.00 | 0.00 | 0.00 | 77 | 1008.0 |
| 20260510002348 | 15 | 282 | 0.0 | 0.0 | 0.00 | 0.00 | 0.00 | 76 | 1007.9 |
| 20260510001841 | 15 | 282 | 0.0 | 0.0 | 0.00 | 0.00 | 0.00 | 75 | 1008.0 |
| 20260510001556 | 15 | 282 | 0.0 | 0.0 | 0.00 | 0.00 | 0.00 | 74 | 1007.7 |
| 20260510001353 | 15 | 282 | 0.0 | 0.0 | 0.00 | 0.00 | 0.00 | 75 | 1007.9 |
| 20260510000847 | 15 | 282 | 0.0 | 0.0 | 0.00 | 0.00 | 0.00 | 73 | 1007.7 |
| 20260510000341 | 16 | 282 | 0.0 | 0.0 | 0.00 | 0.00 | 0.00 | 72 | 1007.7 |
| 20260510000030 | 15 | 282 | 0.0 | 0.0 | 0.00 | 0.00 | 0.00 | 72 | 1007.3 |
| 20260509235929 | 16 | 282 | 0.0 | 0.0 | 0.00 | 0.00 | 0.00 | 71 | 1007.7 |
| 20260509235337 | 16 | 282 | 0.0 | 0.0 | 0.00 | 0.00 | 0.00 | 72 | 1007.6 |
| 20260509234850 | 16 | 282 | 0.0 | 0.0 | 0.00 | 0.00 | 0.00 | 71 | 1007.6 |
| 20260509234547 | 16 | 282 | 0.0 | 0.0 | 0.00 | 0.00 | 0.00 | 69 | 1007.3 |
| 20260509234343 | 17 | 282 | 0.0 | 0.0 | 0.00 | 0.00 | 0.00 | 68 | 1007.6 |
| 20260509233915 | 17 | 282 | 0.0 | 0.0 | 0.00 | 0.00 | 0.00 | 68 | 1007.7 |
| 20260509233407 | 17 | 282 | 0.0 | 0.0 | 0.00 | 0.00 | 0.00 | 67 | 1007.7 |
| 20260509233039 | 17 | 282 | 0.0 | 0.0 | 0.00 | 0.00 | 0.00 | 68 | 1007.4 |
| 20260509232839 | 17 | 282 | 0.0 | 0.0 | 0.00 | 0.00 | 0.00 | 67 | 1007.7 |
| 20260509232351 | 17 | 282 | 0.0 | 0.0 | 0.00 | 0.00 | 0.00 | 66 | 1007.7 |
| 20260509231903 | 18 | 282 | 0.0 | 1.6 | 0.00 | 0.00 | 0.00 | 65 | 1007.7 |
| 20260509231556 | 18 | 282 | 0.0 | 3.2 | 0.00 | 0.00 | 0.00 | 64 | 1007.3 |
| 20260509231355 | 18 | 282 | 0.0 | 3.2 | 0.00 | 0.00 | 0.00 | 65 | 1007.6 |
| 20260509230846 | 18 | 282 | 1.6 | 3.2 | 0.00 | 0.00 | 0.00 | 63 | 1007.6 |
| 20260509230418 | 18 | 282 | 0.0 | 0.0 | 0.00 | 0.00 | 0.00 | 62 | 1007.7 |
| 20260509230047 | 18 | 282 | 0.0 | 0.0 | 0.00 | 0.00 | 0.00 | 62 | 1007.4 |
| 20260509225846 | 19 | 282 | 0.0 | 3.2 | 0.00 | 0.00 | 0.00 | 60 | 1007.7 |
| 20260509225339 | 19 | 282 | 0.0 | 3.2 | 0.00 | 0.00 | 0.00 | 58 | 1007.7 |
| 20260509224912 | 20 | 282 | 1.6 | 3.2 | 0.00 | 0.00 | 0.00 | 57 | 1007.8 |
| 20260509224545 | 19 | 282 | 0.0 | 3.2 | 0.00 | 0.00 | 0.00 | 55 | 1007.5 |
| 20260509224343 | 20 | 282 | 1.6 | 3.2 | 0.00 | 0.00 | 0.00 | 56 | 1007.9 |
| 20260509223856 | 20 | 175 | 0.0 | 3.2 | 0.00 | 0.00 | 0.00 | 58 | 1007.9 |
| 20260509223347 | 20 | 175 | 0.0 | 3.2 | 0.00 | 0.00 | 0.00 | 55 | 1007.9 |
| 20260509223041 | 20 | 175 | 1.6 | 3.2 | 0.00 | 0.00 | 0.00 | 54 | 1007.6 |
| 20260509222841 | 20 | 175 | 0.0 | 3.2 | 0.00 | 0.00 | 0.00 | 54 | 1007.9 |
| 20260509222433 | 20 | 175 | 1.6 | 3.2 | 0.00 | 0.00 | 0.00 | 55 | 1007.9 |
| 20260509221901 | 20 | 175 | 0.0 | 3.2 | 0.00 | 0.00 | 0.00 | 57 | 1007.8 |
| 20260509221552 | 20 | 175 | 0.0 | 3.2 | 0.00 | 0.00 | 0.00 | 57 | 1007.5 |
| 20260509221351 | 20 | 175 | 1.6 | 3.2 | 0.00 | 0.00 | 0.00 | 56 | 1007.9 |
| 20260509220844 | 20 | 316 | 1.6 | 4.8 | 0.00 | 0.00 | 0.00 | 58 | 1007.9 |
| 20260509220358 | 20 | 63 | 1.6 | 4.8 | 0.00 | 0.00 | 0.00 | 57 | 1007.9 |
| 20260509220047 | 20 | 349 | 3.2 | 4.8 | 0.00 | 0.00 | 0.00 | 57 | 1007.6 |
| 20260509215847 | 20 | 279 | 3.2 | 4.8 | 0.00 | 0.00 | 0.00 | 59 | 1007.9 |
| 20260509215441 | 20 | 81 | 1.6 | 6.4 | 0.00 | 0.00 | 0.00 | 57 | 1007.9 |
| 20260509214847 | 20 | 307 | 1.6 | 4.8 | 0.00 | 0.00 | 0.00 | 57 | 1007.9 |
| 20260509214542 | 20 | 306 | 1.6 | 4.8 | 0.00 | 0.00 | 0.00 | 58 | 1007.6 |
| 20260509214340 | 20 | 306 | 3.2 | 4.8 | 0.00 | 0.00 | 0.00 | 58 | 1007.9 |
| 20260509213851 | 20 | 63 | 1.6 | 8.0 | 0.00 | 0.00 | 0.00 | 56 | 1007.9 |
| 20260509213344 | 20 | 98 | 3.2 | 8.0 | 0.00 | 0.00 | 0.00 | 58 | 1007.9 |
| 20260509213037 | 20 | 63 | 1.6 | 4.8 | 0.00 | 0.00 | 0.00 | 57 | 1007.6 |
| 20260509212836 | 20 | 131 | 1.6 | 4.8 | 0.00 | 0.00 | 0.00 | 57 | 1007.9 |
| 20260509212348 | 20 | 46 | 1.6 | 6.4 | 0.00 | 0.00 | 0.00 | 58 | 1007.9 |
| 20260509211901 | 20 | 46 | 3.2 | 6.4 | 0.00 | 0.00 | 0.00 | 60 | 1007.9 |
| 20260509211555 | 20 | 200 | 0.0 | 3.2 | 0.00 | 0.00 | 0.00 | 59 | 1007.6 |
| 20260509211352 | 20 | 200 | 1.6 | 3.2 | 0.00 | 0.00 | 0.00 | 60 | 1007.9 |
| 20260509210849 | 19 | 310 | 1.6 | 4.8 | 0.00 | 0.00 | 0.00 | 61 | 1008.0 |
| 20260509210344 | 20 | 310 | 1.6 | 6.4 | 0.00 | 0.00 | 0.00 | 59 | 1007.9 |
| 20260509210053 | 19 | 310 | 1.6 | 6.4 | 0.00 | 0.00 | 0.00 | 59 | 1007.6 |
| 20260509205854 | 20 | 51 | 1.6 | 6.4 | 0.00 | 0.00 | 0.00 | 59 | 1007.9 |
| 20260509205407 | 20 | 38 | 0.0 | 4.8 | 0.00 | 0.00 | 0.00 | 61 | 1007.9 |
| 20260509204840 | 20 | 46 | 3.2 | 4.8 | 0.00 | 0.00 | 0.00 | 61 | 1007.9 |
| 20260509204530 | 19 | 37 | 1.6 | 4.8 | 0.00 | 0.00 | 0.00 | 62 | 1007.6 |
| 20260509203855 | 20 | 50 | 1.6 | 4.8 | 0.00 | 0.00 | 0.00 | 61 | 1007.9 |
| 20260509203347 | 19 | 5 | 1.6 | 4.8 | 0.00 | 0.00 | 0.00 | 61 | 1007.9 |
| 20260509203102 | 18 | 5 | 1.6 | 4.8 | 0.00 | 0.00 | 0.00 | 61 | 1007.6 |
| 20260509202840 | 19 | 5 | 3.2 | 6.4 | 0.00 | 0.00 | 0.00 | 60 | 1008.0 |
| 20260509202412 | 19 | 27 | 1.6 | 6.4 | 0.00 | 0.00 | 0.00 | 62 | 1008.0 |
| 20260509201844 | 19 | 19 | 1.6 | 4.8 | 0.00 | 0.00 | 0.00 | 59 | 1008.0 |
| 20260509201538 | 19 | 19 | 0.0 | 3.2 | 0.00 | 0.00 | 0.00 | 60 | 1007.6 |
| 20260509201337 | 20 | 110 | 1.6 | 3.2 | 0.00 | 0.00 | 0.00 | 60 | 1007.9 |
| 20260509200848 | 20 | 103 | 0.0 | 3.2 | 0.00 | 0.00 | 0.00 | 60 | 1007.9 |
| 20260509200343 | 20 | 103 | 1.6 | 3.2 | 0.00 | 0.00 | 0.00 | 55 | 1007.8 |
| 20260509200100 | 19 | 103 | 0.0 | 3.2 | 0.00 | 0.00 | 0.00 | 56 | 1007.5 |
| 20260509195852 | 20 | 103 | 0.0 | 3.2 | 0.00 | 0.05 | 0.00 | 57 | 1007.9 |
| 20260509195344 | 19 | 103 | 0.0 | 3.2 | 0.00 | 0.05 | 0.00 | 57 | 1007.9 |
| 20260509194856 | 19 | 103 | 1.6 | 3.2 | 0.00 | 0.05 | 0.00 | 56 | 1007.9 |
| 20260509194547 | 18 | 103 | 0.0 | 1.6 | 0.00 | 0.05 | 0.00 | 62 | 1007.6 |
| 20260509194346 | 19 | 103 | 0.0 | 1.6 | 0.00 | 0.05 | 0.00 | 60 | 1007.9 |
| 20260509193839 | 20 | 103 | 0.0 | 1.6 | 0.00 | 0.05 | 0.00 | 56 | 1007.9 |
| 20260509193121 | 20 | 103 | 0.0 | 4.8 | 0.00 | 0.05 | 0.00 | 57 | 1007.8 |
| 20260509192854 | 20 | 103 | 1.6 | 4.8 | 0.00 | 0.05 | 0.00 | 56 | 1008.1 |
| 20260509192347 | 20 | 54 | 1.6 | 4.8 | 0.00 | 0.05 | 0.00 | 54 | 1008.0 |
| 20260509191843 | 20 | 5 | 3.2 | 6.4 | 0.00 | 0.05 | 0.00 | 53 | 1008.0 |
| 20260509191539 | 20 | 63 | 1.6 | 6.4 | 0.00 | 0.05 | 0.00 | 54 | 1007.8 |
| 20260509191336 | 21 | 17 | 3.2 | 6.4 | 0.00 | 0.05 | 0.00 | 51 | 1008.0 |
| 20260509190849 | 21 | 351 | 1.6 | 0.0 | 0.00 | 0.00 | 0.00 | 53 | 1007.7 |
| 20260509190419 | 20 | 198 | 1.6 | 6.4 | 0.00 | 0.05 | 0.00 | 57 | 1008.0 |
| 20260509190009 | 20 | 197 | 0.0 | 8.0 | 0.00 | 0.05 | 0.00 | 53 | 1007.8 |
| 20260509185908 | 20 | 113 | 1.6 | 8.0 | 0.00 | 0.18 | 0.00 | 54 | 1008.2 |
| 20260509185339 | 20 | 131 | 3.2 | 6.4 | 0.00 | 0.18 | 0.00 | 56 | 1008.1 |
| 20260509184852 | 20 | 131 | 1.6 | 8.0 | 0.00 | 0.18 | 0.00 | 58 | 1008.2 |
| 20260509184546 | 19 | 178 | 1.6 | 8.0 | 0.00 | 0.18 | 0.00 | 55 | 1007.9 |
| 20260509184345 | 20 | 304 | 1.6 | 8.0 | 0.00 | 0.18 | 0.00 | 57 | 1008.3 |
| 20260509183856 | 19 | 167 | 3.2 | 9.7 | 0.00 | 0.18 | 0.00 | 60 | 1008.3 |
| 20260509183349 | 19 | 207 | 1.6 | 4.8 | 0.00 | 0.18 | 0.00 | 62 | 1008.4 |
| 20260509183058 | 18 | 82 | 0.0 | 6.4 | 0.00 | 0.18 | 0.00 | 61 | 1008.1 |
| 20260509182957 | 18 | 82 | 1.6 | 6.4 | 0.00 | 0.18 | 0.00 | 61 | 1008.4 |
| 20260509182348 | 18 | 77 | 3.2 | 9.7 | 0.00 | 0.18 | 0.00 | 61 | 1008.5 |
| 20260509181900 | 18 | 200 | 3.2 | 9.7 | 0.00 | 0.18 | 0.00 | 61 | 1008.6 |
| 20260509181559 | 18 | 161 | 3.2 | 9.7 | 0.00 | 0.18 | 0.00 | 60 | 1008.3 |
| 20260509181351 | 18 | 314 | 1.6 | 4.8 | 0.00 | 0.18 | 0.00 | 59 | 1008.6 |
| 20260509180843 | 17 | 134 | 1.6 | 4.8 | 0.00 | 0.18 | 0.00 | 60 | 1008.6 |
| 20260509180354 | 17 | 302 | 3.2 | 8.0 | 0.00 | 0.18 | 0.00 | 62 | 1008.6 |
| 20260509180043 | 17 | 156 | 1.6 | 8.0 | 0.00 | 0.18 | 0.00 | 61 | 1008.4 |
| 20260509175843 | 17 | 161 | 4.8 | 8.0 | 0.00 | 0.38 | 0.00 | 60 | 1008.7 |
| 20260509175357 | 18 | 153 | 3.2 | 9.7 | 0.00 | 0.38 | 0.00 | 61 | 1008.8 |
| 20260509174849 | 18 | 209 | 3.2 | 9.7 | 0.00 | 0.38 | 0.00 | 64 | 1008.9 |
| 20260509174542 | 17 | 296 | 0.0 | 4.8 | 0.00 | 0.38 | 0.00 | 67 | 1008.6 |
| 20260509174340 | 17 | 296 | 1.6 | 4.8 | 0.00 | 0.38 | 0.00 | 67 | 1008.9 |
| 20260509173852 | 17 | 263 | 3.2 | 8.0 | 0.00 | 0.38 | 0.00 | 69 | 1009.1 |
| 20260509173344 | 17 | 187 | 3.2 | 8.0 | 0.00 | 0.38 | 0.00 | 67 | 1009.0 |
| 20260509173038 | 17 | 206 | 1.6 | 6.4 | 0.00 | 0.38 | 0.00 | 68 | 1008.8 |
| 20260509172838 | 17 | 56 | 1.6 | 4.8 | 0.00 | 0.38 | 0.00 | 70 | 1009.1 |
| 20260509172350 | 17 | 96 | 0.0 | 4.8 | 0.00 | 0.38 | 0.00 | 71 | 1009.2 |
| 20260509171842 | 16 | 81 | 1.6 | 3.2 | 0.00 | 0.38 | 0.00 | 74 | 1009.2 |
| 20260509171555 | 15 | 81 | 0.0 | 1.6 | 0.00 | 0.38 | 0.00 | 79 | 1009.0 |
| 20260509171354 | 15 | 81 | 0.0 | 1.6 | 0.00 | 0.38 | 0.00 | 78 | 1009.4 |
| 20260509170847 | 15 | 81 | 0.0 | 3.2 | 0.00 | 0.38 | 0.00 | 75 | 1009.6 |
| 20260509170358 | 15 | 81 | 0.0 | 3.2 | 0.00 | 0.38 | 0.00 | 77 | 1009.6 |
| 20260509170056 | 15 | 81 | 0.0 | 3.2 | 0.00 | 0.38 | 0.00 | 78 | 1009.4 |
| 20260509165849 | 15 | 81 | 0.0 | 3.2 | 0.00 | 0.53 | 0.00 | 80 | 1009.7 |
| 20260509165340 | 15 | 81 | 0.0 | 3.2 | 0.00 | 0.53 | 0.00 | 80 | 1009.7 |
| 20260509164853 | 15 | 81 | 0.0 | 4.8 | 0.00 | 0.53 | 0.00 | 82 | 1009.8 |
| 20260509164554 | 15 | 81 | 0.0 | 4.8 | 0.00 | 0.53 | 0.00 | 82 | 1009.6 |
| 20260509163840 | 15 | 162 | 0.0 | 3.2 | 0.00 | 0.53 | 0.00 | 84 | 1010.0 |
| 20260509163045 | 14 | 65 | 0.0 | 0.0 | 0.00 | 0.53 | 0.00 | 84 | 1010.0 |
| 20260509162844 | 14 | 65 | 0.0 | 0.0 | 0.00 | 0.53 | 0.00 | 84 | 1010.3 |
| 20260509162355 | 15 | 65 | 0.0 | 0.0 | 0.00 | 0.53 | 0.00 | 84 | 1010.3 |
| 20260509161848 | 15 | 65 | 0.0 | 3.2 | 0.00 | 0.53 | 0.00 | 82 | 1010.2 |
| 20260509161554 | 14 | 65 | 0.0 | 3.2 | 0.00 | 0.53 | 0.00 | 82 | 1009.9 |
| 20260509161344 | 15 | 65 | 0.0 | 3.2 | 0.00 | 0.53 | 0.00 | 82 | 1010.2 |
| 20260509160856 | 15 | 65 | 0.0 | 1.6 | 0.00 | 0.53 | 0.00 | 84 | 1010.3 |
| 20260509160349 | 15 | 65 | 0.0 | 3.2 | 0.00 | 0.53 | 0.00 | 85 | 1010.3 |
| 20260509160040 | 14 | 65 | 0.0 | 4.8 | 0.00 | 0.53 | 0.00 | 84 | 1010.0 |
| 20260509155838 | 14 | 53 | 0.0 | 4.8 | 0.00 | 0.76 | 0.00 | 84 | 1010.2 |
| 20260509155351 | 14 | 53 | 0.0 | 3.2 | 0.00 | 0.76 | 0.00 | 85 | 1010.2 |
| 20260509154842 | 14 | 209 | 0.0 | 0.0 | 0.00 | 0.76 | 0.00 | 84 | 1010.2 |
| 20260509154356 | 14 | 209 | 0.0 | 0.0 | 0.00 | 0.76 | 0.00 | 85 | 1010.3 |
| 20260509153847 | 14 | 209 | 0.0 | 0.0 | 0.00 | 0.76 | 0.00 | 85 | 1010.4 |
| 20260509153341 | 13 | 209 | 0.0 | 0.0 | 0.00 | 0.76 | 0.00 | 87 | 1010.4 |
| 20260509153054 | 13 | 209 | 0.0 | 0.0 | 0.00 | 0.76 | 0.00 | 87 | 1010.1 |
| 20260509152853 | 13 | 209 | 0.0 | 0.0 | 0.00 | 0.76 | 0.00 | 86 | 1010.4 |
| 20260509152404 | 13 | 209 | 0.0 | 0.0 | 0.00 | 0.76 | 0.00 | 85 | 1010.4 |
| 20260509151548 | 13 | 209 | 0.0 | 0.0 | 0.00 | 0.76 | 0.00 | 88 | 1010.0 |
| 20260509151347 | 13 | 209 | 0.0 | 0.0 | 0.00 | 0.76 | 0.00 | 87 | 1010.2 |
| 20260509150840 | 13 | 209 | 0.0 | 0.0 | 0.00 | 0.76 | 0.00 | 87 | 1010.4 |
| 20260509150414 | 13 | 209 | 0.0 | 0.0 | 0.00 | 0.76 | 0.00 | 88 | 1010.4 |
| 20260509150004 | 13 | 209 | 0.0 | 0.0 | 0.00 | 0.76 | 0.00 | 90 | 1010.2 |
| 20260509145903 | 13 | 209 | 0.0 | 0.0 | 0.00 | 1.07 | 0.00 | 90 | 1010.5 |
| 20260509145355 | 12 | 209 | 0.0 | 0.0 | 0.00 | 1.07 | 0.00 | 91 | 1010.6 |
| 20260509144847 | 12 | 209 | 0.0 | 0.0 | 0.00 | 1.07 | 0.00 | 92 | 1010.3 |
| 20260509144541 | 12 | 209 | 0.0 | 0.0 | 0.00 | 1.07 | 0.00 | 92 | 1010.1 |
| 20260509144339 | 12 | 209 | 0.0 | 0.0 | 0.00 | 1.07 | 0.00 | 91 | 1010.4 |
| 20260509143849 | 13 | 209 | 0.0 | 0.0 | 0.00 | 1.07 | 0.00 | 93 | 1010.3 |
| 20260509143342 | 12 | 209 | 0.0 | 0.0 | 0.00 | 1.07 | 0.00 | 93 | 1010.3 |
| 20260509143017 | 12 | 209 | 0.0 | 0.0 | 0.00 | 1.07 | 0.00 | 93 | 1010.1 |
| 20260509142916 | 12 | 209 | 0.0 | 0.0 | 0.00 | 1.07 | 0.00 | 93 | 1010.4 |
| 20260509142346 | 12 | 209 | 0.0 | 0.0 | 0.00 | 1.07 | 0.00 | 94 | 1010.6 |
| 20260509141839 | 11 | 209 | 0.0 | 0.0 | 0.00 | 1.07 | 0.00 | 94 | 1010.7 |
| 20260509141511 | 11 | 209 | 0.0 | 0.0 | 0.00 | 1.07 | 0.00 | 95 | 1010.5 |
| 20260509141411 | 11 | 209 | 0.0 | 0.0 | 0.00 | 1.07 | 0.00 | 95 | 1010.7 |
| 20260509140844 | 11 | 209 | 0.0 | 0.0 | 0.00 | 1.07 | 0.00 | 95 | 1010.8 |
| 20260509140029 | 11 | 208 | 0.0 | 0.0 | 0.00 | 1.07 | 0.00 | 96 | 1010.5 |
| 20260509134529 | 10 | 208 | 0.0 | 0.0 | 0.00 | 1.19 | 0.00 | 96 | 1010.3 |
| 20260509133028 | 10 | 208 | 0.0 | 0.0 | 0.00 | 1.19 | 0.00 | 96 | 1010.3 |
| 20260509131527 | 10 | 208 | 0.0 | 0.0 | 0.00 | 1.19 | 0.00 | 96 | 1010.1 |
| 20260509130047 | 10 | 208 | 0.0 | 0.0 | 0.00 | 1.19 | 0.00 | 96 | 1010.4 |
| 20260509124529 | 10 | 208 | 0.0 | 0.0 | 0.00 | 1.19 | 0.00 | 96 | 1010.5 |
| 20260509123025 | 10 | 68 | 3.2 | 4.8 | 0.00 | 1.19 | 0.00 | 95 | 1010.3 |
| 20260509121528 | 10 | 305 | 0.0 | 3.2 | 0.00 | 1.19 | 0.00 | 95 | 1010.4 |
| 20260509120030 | 10 | 88 | 0.0 | 0.0 | 0.00 | 1.19 | 0.00 | 94 | 1010.6 |
| 20260509114521 | 10 | 174 | 0.0 | 1.6 | 0.00 | 1.19 | 0.00 | 91 | 1010.6 |
| 20260509113018 | 10 | 72 | 0.0 | 0.0 | 0.00 | 1.19 | 0.00 | 88 | 1010.4 |
| 20260509111518 | 10 | 72 | 0.0 | 0.0 | 0.00 | 1.19 | 0.00 | 85 | 1010.2 |
| 20260509110020 | 10 | 72 | 0.0 | 0.0 | 0.00 | 1.19 | 0.00 | 85 | 1010.2 |
| 20260509104516 | 10 | 72 | 0.0 | 0.0 | 0.00 | 1.19 | 0.00 | 84 | 1010.1 |
| 20260509103018 | 10 | 72 | 0.0 | 0.0 | 0.00 | 1.19 | 0.00 | 84 | 1009.7 |
| 20260509101515 | 10 | 72 | 0.0 | 3.2 | 0.00 | 1.19 | 0.00 | 84 | 1009.6 |
| 20260509100020 | 10 | 72 | 0.0 | 0.0 | 0.00 | 1.19 | 0.00 | 85 | 1009.6 |
| 20260509094514 | 10 | 72 | 0.0 | 0.0 | 0.00 | 1.19 | 0.00 | 85 | 1009.7 |
| 20260509093014 | 10 | 72 | 0.0 | 3.2 | 0.00 | 1.19 | 0.00 | 86 | 1009.7 |
| 20260509091513 | 10 | 132 | 0.0 | 1.6 | 0.00 | 1.19 | 0.00 | 85 | 1009.6 |
| 20260509090013 | 10 | 132 | 0.0 | 0.0 | 0.00 | 1.19 | 0.00 | 85 | 1009.4 |
| 20260509084525 | 10 | 132 | 0.0 | 0.0 | 0.00 | 1.19 | 0.00 | 86 | 1009.4 |
| 20260509083020 | 10 | 132 | 0.0 | 0.0 | 0.00 | 1.19 | 0.00 | 86 | 1009.6 |
| 20260509081513 | 10 | 132 | 0.0 | 1.6 | 0.00 | 1.19 | 0.00 | 85 | 1009.5 |
| 20260509080008 | 10 | 132 | 0.0 | 0.0 | 0.00 | 1.19 | 0.00 | 85 | 1009.6 |
| 20260509074510 | 10 | 132 | 0.0 | 0.0 | 0.00 | 1.19 | 0.00 | 85 | 1009.7 |